EW5657 Weather Reports


Display with metric or nautical units.
time (UTC)temp
F
wind
direction
speed
MPH
gust
MPH
rain 1hr
in
rain 24hr
in
rain mn
in
humidity
%
barometer
mb
20260510033502 61 210 2.0 5.0 0.00 0.01 0.01 68 1031.0
20260510033000 61 210 2.0 5.0 0.00 0.01 0.01 69 1031.0
20260510032501 61 228 1.0 5.0 0.00 0.01 0.01 68 1031.0
20260510032004 61 220 1.0 5.0 0.00 0.01 0.01 69 1031.0
20260510031958 61 189 1.0 4.0 0.00 0.01 0.01 70 1031.0
20260510031007 61 193 2.0 6.0 0.00 0.01 0.01 69 1031.1
20260510030957 61 189 1.0 4.0 0.00 0.01 0.01 69 1031.0
20260510030457 61 193 1.0 4.0 0.00 0.01 0.01 70 1031.1
20260510025502 61 212 2.0 5.0 0.00 0.01 0.01 69 1031.1
20260510025456 61 165 2.0 6.0 0.00 0.01 0.01 69 1031.1
20260510024455 61 216 2.0 5.0 0.00 0.01 0.01 70 1031.3
20260510024001 61 216 2.0 4.0 0.00 0.01 0.01 72 1031.4
20260510023955 61 216 1.0 4.0 0.00 0.01 0.01 71 1031.3
20260510022954 61 217 2.0 4.0 0.00 0.01 0.01 72 1031.4
20260510022452 61 193 2.0 4.0 0.00 0.01 0.01 72 1031.5
20260510021957 61 190 1.0 4.0 0.00 0.01 0.01 72 1031.5
20260510021953 61 192 2.0 4.0 0.00 0.01 0.01 71 1031.6
20260510021617 61 199 1.0 4.0 0.00 0.01 0.01 73 1031.7
20260510020952 61 185 1.0 4.0 0.00 0.01 0.01 73 1031.7
20260510015951 61 199 1.0 4.0 0.00 0.01 0.01 73 1031.8
20260510015453 61 207 1.0 4.0 0.00 0.01 0.01 74 1031.9
20260510014952 61 207 2.0 6.0 0.00 0.01 0.01 75 1031.9
20260510014453 60 205 2.0 6.0 0.00 0.01 0.01 76 1032.0
20260510013951 60 207 1.0 4.0 0.00 0.01 0.01 76 1032.0
20260510013452 60 208 1.0 5.0 0.00 0.01 0.01 78 1032.1
20260510012951 60 209 1.0 5.0 0.00 0.01 0.01 79 1032.2
20260510012453 60 212 1.0 5.0 0.00 0.01 0.01 80 1032.2
20260510011951 59 219 1.0 5.0 0.00 0.01 0.01 82 1032.2
20260510011451 59 221 1.0 5.0 0.00 0.01 0.01 83 1032.2
20260510010952 59 277 0.0 4.0 0.00 0.01 0.01 85 1032.2
20260510010453 59 277 0.0 4.0 0.00 0.01 0.01 85 1032.2
20260510005951 60 278 0.0 3.0 0.00 0.01 0.01 86 1032.2
20260510005453 60 278 0.0 2.0 0.00 0.01 0.01 87 1032.2
20260510004951 59 278 1.0 4.0 0.00 0.01 0.01 87 1032.2
20260510004453 59 278 1.0 4.0 0.00 0.01 0.01 87 1032.2
20260510003953 59 278 0.0 4.0 0.00 0.01 0.01 88 1032.2
20260510003456 59 279 0.0 3.0 0.00 0.01 0.01 88 1032.2
20260510002957 59 279 0.0 6.0 0.00 0.01 0.01 88 1032.2
20260510002951 59 279 1.0 6.0 0.00 0.01 0.01 88 1032.3
20260510001952 59 268 0.0 3.0 0.00 0.01 0.01 88 1032.2
20260510001450 59 268 1.0 3.0 0.00 0.01 0.01 89 1032.2
20260510000951 59 268 1.0 6.0 0.00 0.01 0.01 89 1032.2
20260510000448 59 270 1.0 6.0 0.00 0.01 0.01 89 1032.1
20260509235947 59 264 0.0 3.0 0.00 0.01 0.01 89 1032.2
20260509235446 59 264 0.0 2.0 0.00 0.01 0.01 89 1032.1
20260509234949 59 264 1.0 4.0 0.00 0.01 0.01 89 1032.1
20260509234447 58 264 1.0 4.0 0.00 0.01 0.01 89 1032.1
20260509233947 58 262 1.0 4.0 0.00 0.01 0.01 89 1032.1
20260509233447 58 260 1.0 4.0 0.00 0.01 0.01 89 1032.0
20260509232946 58 259 1.0 3.0 0.00 0.01 0.01 90 1032.1
20260509232445 58 259 1.0 3.0 0.00 0.01 0.01 90 1032.1
20260509231945 58 259 1.0 3.0 0.00 0.01 0.01 90 1032.0
20260509231445 58 258 1.0 3.0 0.00 0.01 0.01 90 1032.0
20260509230955 58 258 1.0 2.0 0.00 0.01 0.01 91 1032.0
20260509230947 58 258 1.0 3.0 0.00 0.01 0.01 90 1032.0
20260509225949 57 258 0.0 2.0 0.00 0.01 0.01 91 1032.0
20260509225445 57 258 0.0 0.0 0.00 0.01 0.01 91 1032.0
20260509224946 57 258 0.0 1.0 0.00 0.01 0.01 91 1032.0
20260509224445 57 258 0.0 1.0 0.00 0.01 0.01 91 1032.0
20260509223944 57 258 0.0 1.0 0.00 0.01 0.01 91 1031.8
20260509223449 57 258 0.0 3.0 0.00 0.01 0.01 91 1031.8
20260509223443 57 258 0.0 3.0 0.00 0.01 0.01 91 1031.8
20260509222444 57 258 0.0 1.0 0.00 0.01 0.01 91 1031.8
20260509221944 57 258 0.0 2.0 0.00 0.01 0.01 91 1031.8
20260509221443 57 258 0.0 2.0 0.00 0.01 0.01 91 1031.8
20260509220943 57 258 0.0 1.0 0.00 0.01 0.01 91 1031.7
20260509220443 57 258 0.0 0.0 0.00 0.01 0.01 91 1031.6
20260509215943 56 258 0.0 0.0 0.00 0.01 0.01 91 1031.6
20260509215443 56 258 0.0 0.0 0.00 0.01 0.01 91 1031.5
20260509214945 56 258 0.0 0.0 0.00 0.01 0.01 91 1031.4
20260509214442 56 258 0.0 0.0 0.00 0.01 0.01 91 1031.3
20260509213943 56 258 0.0 0.0 0.00 0.01 0.01 91 1031.4
20260509213443 56 258 0.0 2.0 0.00 0.01 0.01 91 1031.2
20260509212948 56 258 0.0 1.0 0.00 0.01 0.01 91 1031.0
20260509212941 56 258 0.0 2.0 0.00 0.01 0.01 91 1031.2
20260509212442 56 258 0.0 0.0 0.00 0.01 0.01 91 1031.1
20260509211440 56 258 0.0 1.0 0.00 0.01 0.01 91 1031.0
20260509210941 56 258 0.0 0.0 0.00 0.01 0.01 91 1030.9
20260509210443 56 258 0.0 0.0 0.00 0.01 0.01 91 1030.9
20260509205940 56 258 0.0 0.0 0.00 0.01 0.01 91 1030.8
20260509205439 56 258 0.0 0.0 0.00 0.01 0.01 91 1030.7
20260509204939 56 258 0.0 0.0 0.00 0.01 0.01 91 1030.7
20260509204440 56 258 0.0 0.0 0.00 0.01 0.01 91 1030.7
20260509203940 56 258 0.0 0.0 0.00 0.01 0.01 91 1030.7
20260509203440 56 258 0.0 0.0 0.00 0.01 0.01 91 1030.6
20260509202940 56 258 0.0 2.0 0.00 0.02 0.01 91 1030.6
20260509202440 56 258 0.0 2.0 0.00 0.02 0.01 91 1030.5
20260509201940 56 258 0.0 2.0 0.00 0.02 0.01 91 1030.5
20260509201440 56 258 0.0 0.0 0.00 0.02 0.01 91 1030.5
20260509200938 56 258 0.0 0.0 0.00 0.02 0.01 92 1030.5
20260509200445 56 258 0.0 1.0 0.00 0.02 0.01 92 1030.3
20260509200437 56 258 0.0 0.0 0.00 0.02 0.01 91 1030.3
20260509195936 56 258 0.0 1.0 0.00 0.02 0.01 91 1030.3
20260509195604 56 258 0.0 1.0 0.00 0.02 0.01 92 1030.2
20260509194439 56 258 0.0 2.0 0.00 0.02 0.01 92 1030.2
20260509193936 56 258 0.0 3.0 0.00 0.02 0.01 92 1030.1
20260509193436 56 258 0.0 3.0 0.00 0.02 0.01 92 1030.0
20260509192937 56 258 0.0 1.0 0.00 0.02 0.01 92 1030.1
20260509192440 56 258 0.0 1.0 0.00 0.02 0.01 92 1030.0
20260509192436 56 258 0.0 1.0 0.00 0.02 0.01 92 1030.0
20260509191438 56 258 0.0 2.0 0.00 0.02 0.01 92 1029.8
20260509191432 56 258 0.0 2.0 0.00 0.02 0.01 92 1029.9
20260509191057 56 258 0.0 4.0 0.00 0.02 0.01 92 1029.8
20260509190434 56 258 0.0 4.0 0.00 0.02 0.01 92 1029.9
20260509185430 56 262 0.0 1.0 0.00 0.02 0.01 93 1029.7
20260509184931 56 262 0.0 1.0 0.00 0.02 0.01 93 1029.7
20260509184436 56 262 0.0 2.0 0.00 0.02 0.01 93 1029.6
20260509184431 56 262 0.0 1.0 0.00 0.02 0.01 93 1029.6
20260509183433 56 262 0.0 2.0 0.00 0.02 0.01 92 1029.6
20260509182931 56 262 0.0 2.0 0.00 0.02 0.01 93 1029.5
20260509182430 56 262 0.0 2.0 0.00 0.02 0.01 93 1029.5
20260509181930 56 262 0.0 2.0 0.00 0.02 0.01 93 1029.4
20260509181436 56 262 0.0 3.0 0.00 0.02 0.01 93 1029.3
20260509181430 56 262 0.0 1.0 0.00 0.02 0.01 92 1029.4
20260509181055 56 262 0.0 3.0 0.00 0.02 0.01 93 1029.3
20260509175930 57 263 1.0 3.0 0.00 0.02 0.01 92 1029.3
20260509175438 57 264 1.0 6.0 0.00 0.02 0.01 93 1029.3
20260509175432 57 263 1.0 3.0 0.00 0.02 0.01 92 1029.3
20260509175058 57 268 1.0 6.0 0.00 0.02 0.01 93 1029.3
20260509174600 57 202 0.0 2.0 0.01 0.02 0.01 93 1029.3
20260509173431 57 202 0.0 2.0 0.01 0.02 0.01 93 1029.4
20260509172930 57 202 1.0 3.0 0.01 0.02 0.01 93 1029.3
20260509172430 57 202 1.0 3.0 0.01 0.02 0.01 92 1029.3
20260509171930 57 202 1.0 4.0 0.01 0.02 0.01 93 1029.3
20260509171430 57 202 1.0 4.0 0.01 0.02 0.01 93 1029.3
20260509170936 57 199 0.0 4.0 0.01 0.02 0.01 93 1029.4
20260509170930 57 199 1.0 3.0 0.01 0.02 0.01 93 1029.3
20260509165930 57 195 0.0 4.0 0.01 0.03 0.01 92 1029.4
20260509165431 57 195 0.0 4.0 0.01 0.03 0.01 92 1029.5
20260509164931 57 195 0.0 4.0 0.01 0.03 0.01 92 1029.4
20260509164429 57 199 1.0 4.0 0.01 0.03 0.01 92 1029.4
20260509163930 58 198 1.0 5.0 0.00 0.02 0.00 92 1029.5
20260509163427 58 197 1.0 5.0 0.00 0.02 0.00 92 1029.5
20260509162932 58 212 2.0 5.0 0.00 0.02 0.00 92 1029.5
20260509162927 58 204 1.0 5.0 0.00 0.02 0.00 92 1029.5
20260509161929 58 212 1.0 5.0 0.00 0.02 0.00 92 1029.5
20260509161431 58 227 1.0 4.0 0.00 0.02 0.00 91 1029.6
20260509160928 58 175 0.0 3.0 0.00 0.02 0.00 91 1029.7
20260509155926 58 168 1.0 5.0 0.00 0.02 0.00 91 1029.6
20260509155428 58 149 0.0 2.0 0.00 0.02 0.00 91 1029.6
20260509154923 58 149 0.0 2.0 0.00 0.02 0.00 91 1029.6
20260509154422 58 149 1.0 5.0 0.00 0.02 0.00 90 1029.5
20260509153928 58 147 1.0 7.0 0.00 0.02 0.00 90 1029.6
20260509153923 58 149 1.0 5.0 0.00 0.02 0.00 90 1029.6
20260509152920 58 193 2.0 7.0 0.00 0.02 0.00 90 1029.7
20260509152426 58 209 1.0 4.0 0.00 0.02 0.00 90 1029.6
20260509152420 58 199 1.0 4.0 0.00 0.02 0.00 90 1029.7
20260509151420 58 212 1.0 6.0 0.00 0.02 0.00 90 1029.6
20260509150920 58 220 2.0 6.0 0.00 0.02 0.00 89 1029.6
20260509150420 58 204 1.0 8.0 0.00 0.02 0.00 89 1029.6
20260509145920 58 204 1.0 8.0 0.00 0.02 0.00 89 1029.6
20260509145417 58 175 1.0 5.0 0.00 0.02 0.00 89 1029.6
20260509144920 58 156 1.0 5.0 0.00 0.02 0.00 90 1029.5
20260509144418 58 155 1.0 5.0 0.00 0.02 0.00 90 1029.6
20260509143920 58 195 1.0 5.0 0.00 0.02 0.00 90 1029.6
20260509143419 58 185 1.0 5.0 0.00 0.02 0.00 90 1029.6
20260509142923 58 202 1.0 4.0 0.00 0.02 0.00 90 1029.7
20260509142917 58 185 1.0 5.0 0.00 0.02 0.00 90 1029.7
20260509141920 58 201 1.0 4.0 0.00 0.02 0.00 90 1029.7
20260509141419 58 206 1.0 4.0 0.00 0.02 0.00 91 1029.6
20260509140919 58 204 0.0 4.0 0.00 0.02 0.00 91 1029.7
20260509140415 58 211 0.0 4.0 0.00 0.02 0.00 91 1029.7
20260509135916 58 211 0.0 4.0 0.00 0.02 0.02 91 1029.7
20260509135415 58 212 0.0 4.0 0.00 0.02 0.02 91 1029.7
20260509134917 58 212 0.0 4.0 0.00 0.02 0.02 91 1029.6
20260509134417 58 216 0.0 3.0 0.00 0.02 0.02 91 1029.6
20260509133914 58 216 0.0 3.0 0.00 0.02 0.02 91 1029.6
20260509133415 58 216 0.0 3.0 0.00 0.02 0.02 91 1029.5
20260509132916 58 216 0.0 3.0 0.00 0.02 0.02 91 1029.6
20260509132417 58 217 1.0 4.0 0.00 0.02 0.02 91 1029.7
20260509131922 58 219 1.0 6.0 0.00 0.02 0.02 91 1029.7
20260509131917 58 218 1.0 4.0 0.00 0.02 0.02 91 1029.7
20260509130911 58 220 1.0 6.0 0.00 0.02 0.02 91 1029.7
20260509130413 58 221 0.0 3.0 0.00 0.02 0.02 91 1029.7
20260509125910 58 221 0.0 3.0 0.00 0.02 0.02 91 1029.7
20260509125410 58 213 0.0 0.0 0.00 0.02 0.02 91 1029.7
20260509124916 58 214 0.0 1.0 0.00 0.02 0.02 90 1029.8
20260509124910 58 214 0.0 1.0 0.00 0.02 0.02 90 1029.7
20260509123913 58 213 0.0 3.0 0.00 0.02 0.02 90 1029.8
20260509123411 58 214 0.0 3.0 0.00 0.02 0.02 90 1029.7
20260509122913 58 214 1.0 6.0 0.00 0.02 0.02 90 1029.7
20260509122411 58 218 2.0 9.0 0.00 0.02 0.02 90 1029.8
20260509121914 58 185 1.0 9.0 0.00 0.02 0.02 90 1029.7
20260509121410 58 206 1.0 5.0 0.00 0.02 0.02 90 1029.8
20260509120909 59 207 1.0 5.0 0.00 0.02 0.02 90 1029.8
20260509120404 59 194 1.0 6.0 0.00 0.02 0.02 90 1029.8
20260509115906 58 193 1.0 6.0 0.00 0.02 0.02 89 1029.8
20260509115402 58 180 1.0 5.0 0.00 0.02 0.02 89 1029.7
20260509114904 58 175 1.0 5.0 0.00 0.02 0.02 90 1029.6
20260509114403 58 202 1.0 3.0 0.00 0.02 0.02 90 1029.6
20260509113909 58 193 0.0 3.0 0.00 0.02 0.02 90 1029.5
20260509113903 58 193 0.0 3.0 0.00 0.02 0.02 90 1029.5
20260509112903 58 194 0.0 2.0 0.00 0.02 0.02 90 1029.5
20260509112408 58 194 1.0 3.0 0.00 0.02 0.02 90 1029.4
20260509112403 58 194 1.0 3.0 0.00 0.02 0.02 90 1029.5
20260509111403 58 193 0.0 2.0 0.00 0.02 0.02 90 1029.4
20260509110901 58 193 0.0 5.0 0.00 0.02 0.02 90 1029.4
20260509110403 58 193 1.0 5.0 0.00 0.02 0.02 91 1029.3
20260509105903 58 175 0.0 4.0 0.00 0.02 0.02 91 1029.4
20260509105402 57 171 0.0 1.0 0.00 0.02 0.02 90 1029.3
20260509104902 57 171 0.0 0.0 0.00 0.02 0.02 91 1029.3
20260509104401 57 171 0.0 0.0 0.00 0.02 0.02 91 1029.3
20260509103901 57 171 0.0 0.0 0.00 0.02 0.02 91 1029.2
20260509103408 57 171 0.0 2.0 0.00 0.02 0.02 91 1029.2
20260509103402 57 171 0.0 0.0 0.00 0.02 0.02 91 1029.3
20260509102358 57 171 0.0 2.0 0.00 0.02 0.02 91 1029.2
20260509101900 57 171 0.0 2.0 0.00 0.02 0.02 91 1029.2
20260509101359 57 171 0.0 1.0 0.00 0.02 0.02 91 1029.2
20260509100904 57 171 0.0 6.0 0.00 0.02 0.02 91 1029.2
20260509100859 57 171 0.0 6.0 0.00 0.02 0.02 91 1029.2
20260509095858 56 185 0.0 0.0 0.00 0.02 0.02 90 1029.2
20260509095404 57 185 0.0 1.0 0.00 0.02 0.02 90 1029.2
20260509095400 57 185 0.0 1.0 0.00 0.02 0.02 90 1029.2
20260509094405 57 185 0.0 0.0 0.00 0.02 0.02 90 1029.2
20260509094401 57 185 0.0 1.0 0.00 0.02 0.02 90 1029.2
20260509093356 57 185 0.0 2.0 0.00 0.02 0.02 90 1029.2
20260509092857 57 185 0.0 2.0 0.00 0.02 0.02 90 1029.2
20260509092356 57 185 0.0 2.0 0.00 0.02 0.02 90 1029.1
20260509091903 57 185 0.0 2.0 0.00 0.02 0.02 89 1028.9
20260509091858 57 185 0.0 1.0 0.00 0.02 0.02 89 1029.0
20260509090905 58 185 0.0 3.0 0.00 0.02 0.02 89 1028.9
20260509090857 57 185 0.0 2.0 0.00 0.02 0.02 89 1029.0
20260509090359 57 185 0.0 2.0 0.00 0.02 0.02 89 1028.9
20260509085358 58 185 0.0 3.0 0.00 0.02 0.02 89 1028.9
20260509085020 58 185 0.0 1.0 0.00 0.02 0.02 89 1028.7
20260509084900 58 185 0.0 2.0 0.00 0.02 0.02 89 1028.9
20260509084856 58 185 0.0 2.0 0.00 0.02 0.02 89 1028.7
20260509083356 58 185 0.0 4.0 0.00 0.02 0.02 88 1028.7
20260509082855 58 185 0.0 4.0 0.00 0.02 0.02 88 1028.6
20260509082356 58 185 0.0 2.0 0.00 0.02 0.02 88 1028.6
20260509081855 58 185 0.0 2.0 0.00 0.02 0.02 88 1028.6
20260509081359 58 185 0.0 2.0 0.00 0.02 0.02 87 1028.5
20260509080854 58 185 0.0 2.0 0.00 0.02 0.02 87 1028.5
20260509080354 58 185 0.0 0.0 0.00 0.02 0.02 87 1028.4
20260509075854 59 185 0.0 1.0 0.00 0.02 0.02 87 1028.3
20260509075352 59 185 0.0 2.0 0.00 0.02 0.02 87 1028.3
20260509074852 59 185 0.0 2.0 0.00 0.02 0.02 87 1028.2
20260509074353 59 185 0.0 4.0 0.00 0.02 0.02 87 1028.2
20260509073850 59 185 1.0 4.0 0.00 0.02 0.02 87 1028.2
20260509073350 59 189 1.0 4.0 0.00 0.02 0.02 86 1028.1
20260509072848 59 189 0.0 3.0 0.00 0.02 0.02 86 1028.0
20260509072354 59 189 1.0 4.0 0.00 0.02 0.02 86 1027.9
20260509072349 59 189 0.0 4.0 0.00 0.02 0.02 86 1028.0
20260509071349 59 189 1.0 5.0 0.00 0.02 0.02 86 1027.9
20260509070849 59 190 1.0 5.0 0.00 0.02 0.02 86 1027.9
20260509070348 59 193 1.0 4.0 0.00 0.02 0.02 86 1027.9
20260509065849 59 194 1.0 5.0 0.00 0.02 0.02 86 1027.9
20260509065350 60 195 1.0 5.0 0.00 0.02 0.02 86 1027.9
20260509064848 60 185 1.0 5.0 0.00 0.02 0.02 86 1027.9
20260509064348 60 164 1.0 5.0 0.00 0.02 0.02 86 1027.8
20260509063854 60 216 1.0 4.0 0.00 0.02 0.02 87 1027.8
20260509063848 60 212 1.0 5.0 0.00 0.02 0.02 87 1027.8
20260509063514 60 221 1.0 4.0 0.00 0.02 0.02 87 1027.8
20260509063012 60 221 1.0 4.0 0.00 0.02 0.02 87 1027.7
20260509061849 60 249 1.0 4.0 0.00 0.02 0.02 87 1027.8
20260509061350 60 249 1.0 4.0 0.00 0.02 0.02 87 1027.8
20260509060850 60 251 1.0 3.0 0.00 0.02 0.02 87 1027.7
20260509060348 60 251 1.0 3.0 0.00 0.02 0.02 87 1027.6
20260509055850 60 251 1.0 4.0 0.00 0.02 0.02 87 1027.7
20260509055349 60 251 1.0 4.0 0.00 0.02 0.02 87 1027.6
20260509054848 61 254 1.0 4.0 0.00 0.02 0.02 88 1027.7
20260509054349 61 272 1.0 3.0 0.00 0.02 0.02 89 1027.6
20260509053855 61 273 1.0 4.0 0.00 0.02 0.02 90 1027.6
20260509053849 61 273 1.0 3.0 0.00 0.02 0.02 89 1027.6
20260509053515 61 273 1.0 4.0 0.00 0.02 0.02 91 1027.6
20260509052353 60 274 1.0 4.0 0.00 0.02 0.02 92 1027.6
20260509052347 60 274 1.0 4.0 0.00 0.02 0.02 92 1027.6
20260509051347 60 274 1.0 3.0 0.00 0.02 0.02 93 1027.6
20260509050845 60 274 1.0 3.0 0.00 0.02 0.02 93 1027.5
20260509050346 60 274 1.0 3.0 0.00 0.02 0.02 93 1027.6
20260509045848 60 274 1.0 4.0 0.00 0.02 0.02 93 1027.7
20260509045346 59 274 1.0 7.0 0.00 0.02 0.02 94 1027.7
20260509044847 59 274 1.0 7.0 0.00 0.02 0.02 94 1027.8
20260509044346 58 229 1.0 4.0 0.00 0.02 0.02 94 1027.8
20260509043846 58 229 1.0 4.0 0.00 0.02 0.02 94 1027.8
20260509043346 58 226 1.0 3.0 0.00 0.02 0.02 94 1027.7
20260509042850 58 224 1.0 5.0 0.00 0.02 0.02 94 1027.8
20260509042845 58 224 1.0 5.0 0.00 0.02 0.02 94 1027.8
20260509042513 59 229 1.0 5.0 0.00 0.02 0.02 94 1027.8
20260509041342 59 229 1.0 5.0 0.00 0.02 0.02 94 1027.8
20260509040843 59 226 0.0 3.0 0.00 0.02 0.02 94 1027.8
20260509040343 59 226 1.0 3.0 0.00 0.02 0.02 95 1027.8
20260509035842 58 226 1.0 3.0 0.00 0.02 0.02 95 1027.8
20260509035342 58 226 1.0 5.0 0.00 0.02 0.02 95 1027.9
20260509034842 58 226 1.0 5.0 0.00 0.02 0.02 95 1027.9
20260509034341 58 224 2.0 4.0 0.00 0.02 0.02 95 1027.8
20260509033842 58 223 1.0 4.0 0.00 0.02 0.02 95 1027.8